Total_Precipitation_Accumulation
0.04 0.10 0.29 0.51 0.92 1.43 1.43 0.94 0.75 0.53 0.42 0.43 0.34 0.32 0.41 0.62 0.93 1.56 1.30 0.90 0.59 0.58 0.76 0.96 1.04 1.06 1.05 1.07 1.28 1.35 1.35 1.39 1.42 1.54 1.64 1.68 1.68 1.59 1.48 1.47 1.48 1.48 1.43 1.37 1.36 1.34 1.28 1.12 1.07
0.05 0.12 0.29 0.52 1.12 1.64 1.35 0.70 0.48 0.38 0.34 0.38 0.36 0.35 0.51 0.56 0.51 0.76 0.84 0.71 0.46 0.46 0.60 0.66 0.77 0.84 0.87 0.95 1.03 1.12 1.17 1.16 1.26 1.49 1.60 1.63 1.59 1.52 1.44 1.36 1.33 1.33 1.37 1.42 1.31 1.23 1.13 0.98 0.95
0.06 0.13 0.27 0.56 0.98 1.18 0.97 0.57 0.37 0.30 0.35 0.49 0.52 0.42 0.62 0.63 0.52 0.66 0.66 0.46 0.37 0.43 0.54 0.60 0.63 0.62 0.63 0.66 0.75 0.92 1.06 1.14 1.24 1.35 1.41 1.41 1.39 1.38 1.28 1.24 1.28 1.30 1.41 1.47 1.30 1.15 1.01 0.89 0.80
0.05 0.14 0.24 0.45 0.58 0.53 0.51 0.41 0.32 0.31 0.35 0.46 0.57 0.57 0.69 0.55 0.42 0.49 0.48 0.34 0.26 0.34 0.42 0.46 0.47 0.43 0.48 0.52 0.62 0.76 0.87 1.00 1.13 1.17 1.20 1.29 1.42 1.37 1.24 1.24 1.30 1.38 1.46 1.36 1.20 1.02 0.92 0.87 0.75
0.05 0.11 0.23 0.42 0.49 0.45 0.38 0.36 0.33 0.40 0.44 0.52 0.57 0.79 0.87 0.66 0.46 0.39 0.38 0.28 0.16 0.21 0.30 0.35 0.35 0.34 0.39 0.44 0.56 0.72 0.85 0.93 0.93 1.02 1.26 1.39 1.42 1.41 1.39 1.33 1.37 1.41 1.36 1.23 1.16 1.05 1.01 0.89 0.81
0.05 0.07 0.17 0.34 0.40 0.40 0.34 0.29 0.25 0.34 0.49 0.65 0.71 0.84 0.98 0.84 0.60 0.47 0.35 0.28 0.21 0.16 0.26 0.35 0.37 0.37 0.38 0.41 0.49 0.64 0.74 0.83 0.90 1.03 1.17 1.26 1.26 1.29 1.36 1.40 1.47 1.43 1.35 1.21 1.12 1.05 1.01 0.95 0.87
0.03 0.06 0.12 0.25 0.33 0.30 0.27 0.29 0.25 0.30 0.48 0.67 0.70 0.96 1.11 1.08 0.81 0.56 0.45 0.43 0.43 0.30 0.30 0.37 0.43 0.47 0.51 0.58 0.68 0.77 0.81 0.93 1.01 1.06 1.09 1.08 1.09 1.15 1.29 1.40 1.47 1.44 1.27 1.10 1.08 1.02 0.96 0.89 0.83
0.02 0.05 0.08 0.14 0.19 0.27 0.22 0.23 0.25 0.32 0.37 0.47 0.58 0.84 1.11 1.05 0.84 0.74 0.84 0.81 0.86 0.65 0.51 0.47 0.57 0.70 0.70 0.69 0.80 0.89 0.95 1.00 1.05 1.07 1.09 1.14 1.19 1.20 1.28 1.34 1.50 1.44 1.29 1.13 1.08 0.98 0.87 0.87 0.83
0.02 0.08 0.08 0.09 0.12 0.18 0.15 0.21 0.24 0.21 0.27 0.35 0.48 0.66 0.87 0.84 0.80 0.98 1.25 1.13 1.17 1.00 0.75 0.61 0.55 0.69 0.82 0.79 0.78 0.91 0.97 1.02 1.12 1.26 1.29 1.40 1.55 1.49 1.64 1.64 1.72 1.61 1.50 1.39 1.30 1.15 1.02 0.92 0.87
0.01 0.06 0.05 0.05 0.05 0.09 0.13 0.18 0.20 0.24 0.45 0.70 0.83 0.87 0.96 1.18 1.17 1.26 1.36 1.26 1.20 1.17 0.97 0.83 0.73 0.69 0.79 0.80 0.98 1.26 1.21 1.25 1.42 1.67 1.69 1.90 2.06 2.07 1.70 1.87 2.03 2.05 2.04 1.88 1.84 1.71 1.41 1.16 1.12
0.01 0.04 0.04 0.03 0.03 0.05 0.10 0.11 0.16 0.27 0.61 0.97 1.19 1.25 1.27 1.48 1.66 1.71 1.75 1.70 1.58 1.49 1.21 0.99 0.95 0.97 0.97 1.10 1.09 1.29 1.50 1.70 1.75 1.74 1.82 2.04 1.99 1.84 1.70 1.86 1.98 2.05 2.10 2.17 2.38 2.32 1.94 1.90 1.98
0.01 0.01 0.02 0.03 0.02 0.03 0.06 0.08 0.17 0.39 0.77 0.93 1.15 1.29 1.32 1.70 1.80 1.80 2.20 2.26 1.85 1.58 1.51 1.40 1.31 1.31 1.39 1.25 1.36 1.36 1.38 1.55 1.70 1.82 1.80 1.94 2.19 2.13 2.01 2.15 2.10 2.21 2.35 2.73 2.64 2.80 2.64 2.34 2.06
0.01 0.01 0.01 0.02 0.02 0.03 0.04 0.09 0.18 0.37 0.59 0.68 0.87 1.03 1.08 1.58 1.90 2.11 2.59 2.55 2.26 2.06 1.94 1.78 1.74 1.82 1.80 1.76 1.77 1.56 1.56 1.64 1.73 1.85 2.00 2.06 2.19 2.22 2.22 2.32 2.36 2.06 2.14 2.45 2.74 2.67 2.83 2.82 2.58
0.00 0.01 0.02 0.03 0.03 0.04 0.04 0.12 0.23 0.43 0.56 0.77 0.79 0.94 1.16 1.55 1.83 2.24 2.58 2.83 2.69 2.44 2.24 2.08 2.04 2.15 2.23 2.17 2.19 2.09 1.81 1.89 1.83 2.01 2.10 2.19 2.26 2.37 2.51 2.55 2.52 2.19 2.15 2.42 2.63 2.55 2.90 2.84 2.79
0.01 0.02 0.05 0.06 0.06 0.06 0.08 0.26 0.48 0.58 0.70 0.86 0.98 1.07 1.29 1.64 2.13 2.40 2.66 2.98 3.01 2.93 2.74 2.50 2.37 2.54 2.77 2.84 2.74 2.52 2.27 2.05 2.06 2.16 2.22 2.29 2.28 2.47 2.47 2.42 2.44 2.39 2.28 2.51 2.61 2.66 2.83 2.68 2.56
0.02 0.04 0.11 0.12 0.09 0.09 0.16 0.57 0.72 0.60 0.77 0.96 1.05 1.28 1.58 1.96 2.40 2.89 3.06 2.95 2.98 3.12 3.07 2.76 2.53 2.97 3.33 3.37 3.30 3.00 2.69 2.37 2.24 2.29 2.28 2.35 2.39 2.52 2.68 2.47 2.37 2.58 2.52 2.67 2.98 2.96 3.09 3.19 3.05
0.03 0.07 0.11 0.16 0.12 0.12 0.25 0.73 0.71 0.53 0.65 0.84 1.07 1.31 1.74 2.25 2.61 2.77 2.83 3.02 3.15 3.25 3.22 3.12 3.21 3.31 3.44 3.54 3.62 3.35 3.09 2.82 2.53 2.41 2.35 2.36 2.44 2.63 2.98 2.86 2.85 2.80 2.79 2.83 2.54 3.15 3.45 3.49 3.31
0.04 0.07 0.14 0.17 0.15 0.18 0.28 0.55 0.63 0.63 0.79 0.91 1.22 1.43 1.59 1.97 2.42 2.52 2.64 3.12 3.21 3.39 3.51 3.42 3.53 3.66 3.91 4.12 4.27 3.87 3.45 3.14 2.84 2.65 2.69 2.67 2.79 2.90 3.17 3.00 2.94 2.88 3.03 3.04 3.08 3.54 3.50 3.24 3.23
0.03 0.07 0.16 0.18 0.16 0.22 0.32 0.54 0.73 0.81 0.97 1.27 1.47 1.47 1.45 1.75 2.24 2.60 2.85 3.05 3.39 3.59 3.75 3.74 3.94 4.32 4.64 4.49 4.17 3.95 3.66 3.41 3.17 2.92 2.80 2.82 2.73 2.86 3.18 3.03 3.26 3.16 3.03 3.03 3.06 3.36 3.44 3.15 3.31
0.03 0.07 0.16 0.19 0.18 0.29 0.43 0.65 0.83 1.03 1.25 1.35 1.27 1.27 1.42 1.79 2.29 2.66 2.94 3.10 3.36 3.63 4.04 4.15 4.33 4.67 4.78 4.63 4.51 4.33 4.16 3.75 3.61 3.44 3.23 2.87 2.65 2.73 2.83 3.17 2.98 3.03 3.11 3.03 3.15 3.41 3.29 2.87 3.30
0.04 0.08 0.14 0.15 0.23 0.39 0.49 0.92 1.10 1.26 1.39 1.38 1.30 1.49 1.51 1.59 2.02 2.29 2.42 2.61 2.80 2.94 3.19 3.47 3.95 4.41 4.54 4.61 4.52 4.47 4.48 3.99 3.72 3.55 3.32 2.93 2.66 2.59 2.77 2.93 3.00 3.03 2.92 2.97 3.17 3.22 3.25 3.07 3.13
0.06 0.07 0.07 0.11 0.21 0.48 0.56 1.15 1.38 1.59 1.68 1.54 1.46 1.40 1.36 1.59 1.93 1.94 1.81 1.97 2.22 2.22 2.54 2.95 3.38 3.70 3.89 4.00 4.00 4.00 3.94 3.81 3.73 3.59 3.18 2.90 2.63 2.54 2.64 2.76 2.82 2.85 2.69 2.78 2.61 2.73 3.16 3.25 2.99
0.05 0.05 0.08 0.13 0.21 0.44 0.49 0.85 1.38 1.78 1.93 1.55 1.45 1.33 1.38 1.60 1.64 1.60 1.63 1.73 1.90 2.08 2.39 2.70 3.00 3.28 3.43 3.52 3.58 3.65 3.53 3.54 3.45 3.26 3.01 2.76 2.57 2.41 2.22 2.32 2.55 2.60 2.48 2.44 2.47 2.70 2.81 2.80 2.77
0.05 0.08 0.15 0.22 0.39 0.74 0.63 0.75 1.29 1.71 1.57 1.35 1.29 1.09 1.19 1.38 1.46 1.51 1.60 1.73 1.86 2.16 2.52 2.81 3.03 3.23 3.30 3.08 2.96 2.96 2.99 3.06 3.00 2.81 2.62 2.36 2.23 2.08 1.90 1.98 2.24 2.31 2.32 2.31 2.30 2.39 2.47 2.52 2.56
0.08 0.17 0.58 0.99 1.30 1.17 0.73 0.85 1.45 1.37 1.03 0.95 1.04 1.02 1.01 1.05 1.19 1.31 1.50 1.71 1.89 1.99 2.10 2.53 2.95 3.12 3.03 2.77 2.58 2.48 2.58 2.68 2.60 2.44 2.36 2.23 2.01 1.86 1.83 1.87 1.99 2.00 2.06 2.06 2.17 2.24 2.29 2.44 2.53
0.13 0.24 0.70 0.99 1.05 1.01 0.81 1.22 1.74 1.35 0.91 0.77 0.87 0.87 0.76 0.71 0.68 0.78 0.97 1.08 1.18 1.22 1.28 1.45 1.73 1.98 2.07 1.97 1.96 2.00 2.03 2.09 2.07 2.22 2.07 2.02 1.89 1.75 1.78 1.72 1.70 1.75 1.79 1.81 2.13 2.19 2.31 2.46 2.54
0.24 0.29 0.30 0.52 0.71 1.05 1.06 1.26 1.37 1.14 0.89 0.86 0.94 0.85 0.67 0.63 0.59 0.65 0.76 0.78 0.86 0.92 0.98 1.13 1.38 1.62 1.65 1.64 1.67 1.71 1.72 1.74 1.76 1.81 1.74 1.72 1.75 1.67 1.65 1.65 1.76 1.74 1.76 1.87 2.08 2.14 2.22 2.44 2.49
0.20 0.28 0.43 0.69 0.92 1.07 1.14 1.47 1.64 1.46 1.19 1.05 1.01 0.88 0.67 0.55 0.54 0.60 0.71 0.71 0.82 0.98 1.14 1.26 1.37 1.46 1.45 1.44 1.43 1.36 1.46 1.46 1.52 1.51 1.44 1.46 1.54 1.55 1.53 1.55 1.64 1.69 1.71 1.80 2.02 2.06 2.14 2.27 2.29
0.23 0.30 0.47 0.64 0.70 0.91 1.28 1.43 1.20 1.15 1.10 1.15 1.14 0.97 0.72 0.55 0.49 0.56 0.68 0.74 0.82 0.95 1.09 1.22 1.31 1.40 1.37 1.33 1.39 1.42 1.43 1.44 1.44 1.41 1.34 1.41 1.48 1.51 1.49 1.54 1.63 1.67 1.71 1.83 1.96 1.95 2.06 2.05 2.02
0.22 0.33 0.48 0.71 0.77 0.81 0.98 1.12 0.74 0.76 0.87 0.93 0.93 0.75 0.58 0.51 0.49 0.58 0.70 0.75 0.88 0.95 1.00 1.00 1.09 1.28 1.30 1.31 1.43 1.62 1.59 1.57 1.51 1.39 1.34 1.40 1.42 1.43 1.45 1.53 1.61 1.60 1.68 1.85 1.94 1.92 2.05 2.06 1.97